Dewpoint
-5 -5 -8 -7 -5 -4 -5 -5 -6 -6 -3 -3 -2 -2 -3 -6 -7 -7 -5 -1 1 2 2 3 4 3 1 -1 0 0 0 3 4 4 2 1 2 4 3 3 6 5 6 4
-6 -6 -7 -8 -5 -4 -4 -4 -6 -6 -3 -3 -3 -4 -4 -5 -6 -6 -7 -5 -1 1 3 4 5 3 0 0 0 -1 -0 2 7 6 2 -0 3 4 5 5 5 5 6 3
-5 -6 -7 -8 -5 -3 -4 -5 -6 -6 -3 -3 -3 -3 -5 -2 -3 -5 -4 -0 1 2 3 3 3 4 -0 -1 2 1 1 1 0 3 3 2 1 0 3 4 5 3 4 2
-5 -6 -6 -9 -4 -3 -4 -4 -6 -4 -4 -5 -4 -4 -3 -2 -1 1 1 2 2 3 3 3 3 1 1 -1 -1 1 0 2 1 0 1 2 1 0 0 3 3 4 1 1
-5 -7 -8 -8 -4 -3 -3 -4 -5 -4 -4 -4 -5 -5 -3 -3 -4 0 1 -0 0 1 2 2 2 0 1 1 -1 -0 -1 3 0 -1 -0 -1 -1 -3 -1 -0 -0 1 1 3
-7 -5 -6 -7 -4 -3 -4 -3 -4 -4 -5 -6 -5 -4 -5 -5 -5 -4 -2 -3 -1 0 1 1 1 0 -0 -0 1 -0 1 0 -2 -1 -0 -2 -4 -2 -6 -5 -4 1 3 2
-5 -3 -6 -9 -5 -2 -3 -4 -3 -4 -5 -6 -7 -6 -6 -5 -6 -3 -3 -1 -0 -1 -1 -1 -2 0 0 0 0 0 1 0 1 0 1 -1 -6 -5 -5 -3 -3 2 3 3
-3 -4 -6 -5 -3 -2 -2 -2 -3 -3 -4 -5 -6 -5 -6 -6 -4 -3 -2 -2 -3 -1 -1 -1 -2 -2 -3 -2 1 -0 -1 0 2 0 -1 -3 -5 0 -0 -1 -3 3 4 4
-4 -4 -7 -4 -3 -3 -2 -3 -2 -3 -4 -6 -5 -5 -4 -3 -2 -4 -2 -5 -3 -2 -1 -0 0 0 -0 -1 0 -0 -0 -0 0 1 -1 -1 -2 -0 1 1 -5 2 3 5
-4 -5 -8 -5 -4 -4 -2 -1 -2 -3 -3 -5 -6 -5 -4 -5 -4 -4 -3 -4 -3 -2 -0 1 1 0 -1 -1 -1 1 2 1 1 1 -0 -1 2 2 0 -2 0 1 1 1
-4 -5 -9 -6 -5 -4 -2 -2 -3 -2 -3 -5 -6 -7 -8 -8 -6 -5 -5 -3 -4 -2 -0 -0 1 1 0 0 -0 2 1 1 2 0 1 2 1 1 2 3 2 2 0 -0
-5 -6 -10 -8 -6 -5 -3 -2 -2 -2 -2 -3 -4 -4 -5 -5 -6 -3 -4 -2 -3 -1 -2 -2 -1 -1 -1 -0 1 -0 2 3 2 2 3 1 0 0 -1 -0 -1 -0 -1 -2
-5 -6 -10 -8 -5 -5 -4 -2 -2 -2 -3 -3 -2 -6 -5 -5 -6 -6 -4 -5 -3 -2 -1 -1 -1 0 0 0 -0 0 1 0 2 2 1 -1 -2 -2 -3 -3 -3 -3 -2 -2
-7 -9 -9 -6 -6 -4 -4 -3 -2 -2 -2 -3 -4 -5 -6 -7 -6 -5 -7 -6 -4 -2 -2 -1 -2 -0 -0 1 -0 1 -1 -1 -1 2 -1 -1 -3 -3 -3 -3 -4 -4 -4 -4
-10 -7 -5 -5 -5 -4 -3 -3 -3 -3 -2 -3 -4 -5 -5 -5 -6 -6 -6 -4 -3 -3 -4 -0 -0 -2 0 1 0 -2 -2 -1 -1 -0 -2 -2 -4 -5 -4 -4 -5 -5 -6 -6
-9 -5 -4 -3 -3 -3 -2 -3 -3 -2 -2 -2 -2 -5 -6 -3 -5 -6 -6 -3 -3 -3 -1 -0 -0 -1 0 0 -0 -2 -3 -3 -3 -2 -3 -4 -5 -5 -6 -6 -6 -6 -7 -8
-6 -2 -1 -2 -2 -2 -3 -2 -3 -2 -2 -2 -3 -4 -2 -2 -3 -5 -5 -5 -5 -3 -1 -0 -0 -1 -0 0 -1 -3 -3 -4 -4 -4 -3 -4 -5 -6 -7 -7 -7 -8 -8 -8
-2 -2 -2 -2 -2 -2 -2 -2 -2 -3 -2 -2 -3 -3 -3 -2 -2 -2 -3 -3 -1 -1 -1 -1 -0 -1 -0 -0 -4 -5 -6 -5 -6 -5 -5 -5 -6 -6 -7 -8 -8 -9 -9 -10
-2 -1 -1 -1 -2 -2 -2 -2 -2 -2 -3 -3 -4 -2 -2 -1 -1 -1 -1 -1 -1 -2 -0 -1 -1 -2 -1 -5 -5 -6 -7 -7 -8 -6 -6 -7 -7 -8 -9 -9 -9 -10 -10 -10
-2 -2 -1 -1 -1 -1 -2 -2 -3 -2 -3 -2 -2 -3 -2 -1 -1 -2 -1 -2 -2 -1 -3 -2 -0 -3 -6 -7 -7 -7 -8 -9 -9 -6 -7 -7 -8 -9 -10 -10 -11 -11 -11 -11
-2 -2 -2 -1 -2 -2 -2 -2 -2 -3 -2 -4 -3 -3 -2 -2 -0 -1 -2 -2 -3 -1 -2 -2 -2 -3 -7 -8 -8 -9 -9 -10 -9 -10 -9 -9 -9 -10 -11 -11 -12 -11 -12 -12
-2 -2 -2 -2 -1 -2 -3 -3 -3 -3 -4 -3 -4 -3 -1 -2 -0 -1 -2 -2 -1 -1 -1 -1 -2 -7 -8 -8 -9 -11 -11 -11 -10 -10 -11 -11 -11 -11 -11 -12 -12 -12 -12 -12
-2 -2 -2 -2 -2 -1 -3 -3 -2 -2 -4 -3 -2 -1 -2 -1 -1 -1 -1 -2 -1 -2 -1 -2 -7 -8 -9 -10 -11 -12 -12 -11 -11 -12 -12 -11 -12 -12 -12 -12 -12 -12 -13 -13
-1 -2 -1 -4 -4 -4 -6 -4 -4 -5 -4 -2 -1 -2 -1 -1 -1 -1 -2 -2 -2 -2 -2 -4 -8 -8 -9 -11 -12 -12 -12 -12 -12 -12 -12 -12 -12 -13 -13 -13 -13 -13 -13 -13
-3 -3 -2 -4 -6 -5 -4 -3 -3 -3 -4 -1 -1 -1 -2 -3 -2 -3 -3 -2 -1 -3 -3 -9 -9 -9 -11 -12 -12 -12 -13 -13 -13 -13 -13 -13 -13 -13 -13 -13 -13 -13 -13 -13
-5 -5 -6 -6 -5 -5 -3 -3 -3 -2 -2 -2 -2 -3 -3 -4 -5 -3 -2 -2 -2 -6 -10 -10 -9 -10 -12 -12 -12 -13 -13 -13 -13 -13 -13 -13 -13 -13 -13 -13 -13 -14 -14 -17
-7 -7 -7 -6 -6 -5 -4 -3 -2 -1 -2 -3 -5 -5 -4 -7 -7 -6 -8 -6 -10 -11 -10 -10 -10 -11 -12 -12 -12 -12 -12 -13 -13 -13 -13 -13 -13 -13 -13 -14 -14 -14 -15 -16
Wind_Speed
6 8 6 6 7 11 14 9 3 11 14 4 2 3 5 11 16 20 10 5 5 7 8 5 4 6 9 18 2 3 1 4 5 3 2 7 3 4 3 2 4 1 1 6
8 8 8 5 6 10 13 10 4 6 9 3 4 6 9 10 11 9 4 6 6 3 5 5 6 8 14 15 5 2 0 2 6 8 5 7 6 3 6 7 3 4 3 4
9 9 6 3 2 7 10 4 3 3 3 2 5 9 8 14 16 11 7 7 6 3 5 7 7 9 10 15 11 13 5 5 5 5 6 3 4 2 3 3 2 1 7 18
10 9 7 3 2 3 6 4 1 2 4 4 5 5 5 13 8 6 10 2 10 5 5 7 8 10 7 12 22 5 3 6 6 8 6 3 2 4 3 5 6 5 8 16
10 8 6 5 5 3 1 2 1 2 5 10 6 3 4 13 18 5 5 10 12 6 6 5 4 7 3 1 7 5 5 2 2 3 5 4 1 6 4 7 8 11 14 14
10 8 8 8 8 5 2 4 5 3 3 4 3 2 6 11 15 8 7 13 5 6 7 14 16 11 9 4 6 5 2 3 1 2 2 4 4 2 3 2 3 3 6 6
10 11 9 11 9 9 8 8 5 3 3 2 4 9 13 13 14 8 11 12 7 9 25 18 6 5 7 5 5 2 1 2 2 2 1 1 1 6 2 2 4 8 8 7
10 12 10 12 9 9 10 11 9 4 2 4 8 6 8 15 13 4 4 8 12 19 11 4 3 2 1 4 8 3 0 2 3 2 1 5 2 6 6 6 9 10 9 8
11 14 14 15 10 10 11 10 8 6 1 3 3 4 4 3 5 7 4 12 10 14 2 2 3 3 3 3 2 6 4 4 3 2 2 1 4 9 13 4 8 14 13 11
15 13 14 17 12 11 11 11 10 8 3 8 8 3 2 4 3 3 6 12 10 15 5 3 3 2 3 2 3 2 3 4 4 2 1 5 6 16 13 2 5 13 11 13
18 14 13 18 15 13 11 12 12 17 6 12 13 8 10 9 6 2 7 5 4 5 5 4 3 3 3 2 2 3 2 1 1 2 3 3 16 6 4 2 12 10 11 12
14 15 14 18 15 14 13 9 11 9 16 9 10 12 15 17 12 4 3 1 2 3 2 3 2 1 3 4 2 4 2 4 2 3 3 9 14 10 12 14 12 14 14 12
17 17 15 17 14 14 16 13 11 15 13 17 18 16 10 16 22 20 4 2 2 2 3 2 2 2 3 2 2 4 3 7 2 2 5 8 14 14 16 17 15 15 14 13
18 16 16 16 19 15 17 18 16 14 5 3 6 5 5 4 11 21 21 19 8 2 4 2 2 2 1 1 3 1 2 6 4 1 4 4 15 14 11 13 14 14 13 12
14 14 15 16 17 18 16 19 21 21 13 3 6 12 9 6 10 11 16 14 13 2 4 2 2 2 2 1 0 1 3 3 2 3 7 5 5 9 11 13 14 13 10 11
18 19 18 16 16 18 14 8 23 26 24 5 2 4 2 3 8 8 19 13 12 7 3 4 3 3 1 1 1 2 3 5 10 4 5 10 9 9 10 12 13 11 10 9
18 12 8 14 20 24 21 5 3 12 24 4 3 3 0 1 8 9 8 10 8 6 4 3 2 3 2 2 2 6 4 5 8 9 6 8 8 6 7 8 9 9 9 9
11 8 11 13 20 22 24 7 2 11 13 4 1 2 1 7 4 4 6 7 6 5 3 2 3 2 0 2 5 5 3 2 5 8 8 6 4 4 6 6 6 6 8 9
12 11 14 23 19 13 9 9 9 17 3 5 2 2 2 7 4 4 5 5 2 3 3 3 4 1 4 2 7 5 5 3 4 3 5 5 4 4 5 5 5 5 6 7
10 16 9 7 12 15 24 12 8 7 4 4 3 4 2 6 3 2 3 2 2 3 4 4 3 1 6 5 6 4 3 4 5 3 2 5 5 5 5 7 6 6 7 9
14 7 4 21 25 14 4 5 4 5 3 6 5 11 3 6 2 3 4 2 2 2 3 4 3 2 4 7 5 3 3 4 5 4 4 4 2 3 5 6 7 7 7 8
14 10 15 28 6 4 4 3 4 4 4 5 5 7 4 5 5 2 4 3 3 4 6 3 2 2 9 8 4 2 2 2 2 3 3 4 4 4 4 6 8 8 8 8
20 7 8 7 4 3 6 7 3 4 6 8 8 4 8 4 5 2 2 3 3 2 1 2 1 9 8 6 3 2 3 3 3 4 5 7 9 10 11 12 13 10 9 10
5 6 6 4 4 4 4 4 4 4 8 17 15 7 3 3 2 1 4 1 1 1 2 3 3 10 9 6 4 4 7 7 8 9 10 11 10 11 11 11 11 9 9 9
4 4 4 5 3 3 8 10 8 9 16 19 9 5 3 1 1 1 2 2 3 3 2 2 10 12 9 7 6 7 8 8 9 10 10 10 9 8 8 9 9 8 7 7
4 4 3 3 4 5 8 10 10 14 18 12 4 3 2 2 2 3 5 4 4 1 2 12 16 12 10 9 8 8 8 8 8 9 9 9 8 7 6 6 5 4 4 4
3 2 5 4 4 5 7 10 9 19 14 2 3 4 4 3 1 2 2 1 1 7 16 16 12 11 11 10 10 9 8 8 8 7 7 7 6 5 4 3 2 2 2 4
Wind_Direction
264 296 313 324 331 344 348 350 6 338 353 355 346 319 281 298 300 299 297 266 315 291 307 300 67 44 13 335 357 75 24 90 90 79 11 117 107 124 131 163 162 204 292 274
257 282 289 301 329 343 354 344 310 349 5 32 338 324 298 280 283 290 283 300 250 281 298 359 19 9 344 14 44 61 197 97 135 125 104 50 78 99 110 90 90 226 254 263
262 281 276 254 312 338 352 358 356 344 10 353 318 345 331 341 304 264 272 295 323 306 340 356 19 10 345 9 16 23 71 46 62 108 108 127 119 91 123 131 170 237 254 289
263 255 267 234 204 324 13 358 342 352 323 319 322 316 292 329 344 334 4 283 353 350 5 3 18 13 355 7 355 30 72 64 79 85 100 107 137 240 250 223 226 247 291 288
246 253 249 204 196 237 243 276 338 288 277 297 328 329 322 337 341 320 18 9 339 32 44 10 321 337 26 10 323 21 5 105 37 70 98 68 279 283 239 243 251 254 274 285
212 236 263 221 203 237 226 253 269 258 288 309 341 313 331 314 334 305 305 329 324 354 349 314 288 293 291 298 339 0 32 125 111 115 17 347 284 137 341 277 257 279 308 314
216 255 271 209 206 239 240 250 260 190 277 263 296 301 312 305 319 286 312 0 7 329 323 315 280 274 288 300 322 316 54 76 38 98 318 117 32 299 147 251 39 8 335 306
251 240 246 203 217 239 235 254 248 208 264 269 291 298 296 309 322 330 310 337 327 330 323 339 327 20 142 96 29 57 31 92 100 111 49 310 14 40 22 356 343 10 341 328
228 256 237 215 224 232 243 248 242 216 219 253 284 305 305 326 332 337 321 342 349 360 4 4 12 44 332 7 79 41 61 60 73 78 73 269 75 337 320 265 294 6 342 337
234 267 231 215 225 227 239 231 240 217 215 263 245 250 303 340 350 296 299 337 344 10 2 34 22 31 323 10 12 3 55 56 71 114 254 279 356 331 314 287 346 4 18 42
240 246 242 221 226 227 235 239 233 224 223 264 251 257 250 279 291 263 316 338 14 2 34 4 1 5 17 312 12 353 31 54 114 162 216 281 358 343 11 353 43 48 57 72
248 256 250 223 225 225 237 251 238 272 238 264 267 270 275 253 248 266 6 288 296 345 338 16 320 347 6 5 55 9 66 15 348 347 29 13 38 49 27 54 65 54 77 79
250 257 241 217 221 224 229 238 234 221 241 277 270 282 284 255 242 232 247 280 307 330 21 325 324 314 325 18 1 348 49 31 328 335 64 48 41 51 49 56 63 67 72 87
259 245 216 221 224 223 226 232 239 237 249 272 279 295 305 314 235 226 236 248 281 298 350 315 301 283 301 350 316 326 352 335 338 340 46 127 39 41 48 60 62 60 69 78
242 216 215 214 214 220 224 233 238 238 228 247 288 299 319 282 236 229 220 218 211 297 335 275 236 264 290 237 136 65 8 11 6 46 341 94 52 45 47 53 52 54 54 65
227 220 218 217 212 209 225 240 246 239 234 237 281 271 293 295 208 202 205 201 212 244 273 250 275 280 251 334 280 91 67 59 37 65 45 96 94 61 49 49 43 44 50 58
221 229 270 229 205 197 196 212 250 204 217 199 271 311 280 335 165 171 184 202 203 203 220 245 247 275 207 220 253 135 69 65 49 40 129 84 61 69 46 34 33 27 47 54
228 213 189 178 181 197 204 208 263 176 179 181 246 268 287 182 155 134 156 158 187 207 223 257 242 219 138 248 132 116 73 143 39 51 61 91 98 61 46 43 38 35 50 51
217 194 178 172 176 170 182 160 137 163 152 166 211 224 211 172 159 136 156 164 160 202 212 234 180 175 227 101 146 103 47 66 4 90 92 76 64 49 45 37 45 58 57 63
202 158 151 157 143 153 128 135 154 185 222 213 238 210 213 179 130 114 122 161 185 199 226 169 216 203 115 114 117 106 58 17 18 147 23 42 62 65 60 55 66 76 83 89
185 174 118 142 153 142 121 136 166 172 219 214 227 202 150 187 171 148 204 184 186 237 185 195 198 219 144 141 123 97 56 37 47 60 74 74 118 105 90 84 84 93 94 96
172 143 136 144 153 143 135 164 154 200 219 197 192 195 173 174 186 151 181 210 173 246 151 200 234 92 140 136 131 93 62 42 62 71 76 85 83 78 78 90 92 95 95 93
142 148 156 156 154 163 166 174 189 191 193 179 169 148 167 168 204 156 164 205 235 101 180 244 101 144 142 145 134 106 102 95 78 74 75 89 94 98 89 90 89 94 100 96
139 173 134 180 187 216 185 188 169 163 166 161 146 140 155 153 176 167 193 167 184 177 238 224 137 149 150 145 133 115 102 96 95 95 95 93 84 79 79 79 84 80 81 81
139 144 186 196 208 120 140 135 124 143 158 155 115 89 100 69 141 41 129 164 229 228 232 142 150 152 146 129 117 109 103 99 98 94 91 89 88 91 98 94 87 81 69 56
113 141 108 151 141 151 145 143 143 152 160 149 120 117 137 218 165 165 211 175 222 150 143 147 148 145 139 133 128 123 119 116 114 110 107 105 101 99 97 94 92 86 69 53
86 81 129 164 120 157 129 135 145 159 163 166 132 132 191 111 102 226 204 213 149 147 137 142 144 143 141 139 136 131 125 124 125 124 119 114 109 104 97 84 84 75 45 21
Height
1487 1486 1486 1486 1485 1483 1481 1479 1479 1477 1474 1474 1471 1470 1466 1456 1450 1448 1444 1442 1438 1426 1418 1409 1398 1400 1398 1394 1393 1395 1397 1403 1414 1419 1417 1416 1417 1423 1423 1423 1438 1435 1437 1419
1484 1484 1484 1485 1484 1483 1481 1480 1479 1477 1475 1477 1472 1466 1461 1455 1448 1447 1440 1437 1435 1430 1420 1412 1407 1407 1402 1398 1397 1400 1400 1408 1414 1422 1420 1418 1419 1420 1423 1430 1436 1436 1433 1415
1482 1482 1482 1483 1483 1482 1482 1482 1482 1478 1477 1477 1475 1469 1461 1457 1446 1444 1442 1437 1432 1428 1422 1419 1417 1414 1408 1405 1401 1401 1400 1409 1406 1410 1417 1418 1422 1422 1423 1426 1434 1430 1428 1418
1479 1480 1481 1481 1481 1482 1483 1483 1484 1483 1483 1476 1476 1472 1468 1462 1454 1444 1442 1437 1436 1432 1427 1424 1423 1421 1415 1409 1408 1406 1408 1417 1415 1417 1419 1421 1422 1423 1424 1427 1427 1430 1423 1420
1475 1478 1478 1479 1479 1480 1482 1484 1484 1483 1481 1477 1475 1470 1469 1465 1456 1452 1446 1445 1440 1434 1433 1436 1433 1431 1423 1421 1415 1412 1413 1420 1419 1420 1422 1422 1422 1420 1424 1424 1424 1423 1420 1418
1472 1475 1476 1477 1478 1479 1480 1482 1482 1483 1480 1477 1475 1472 1470 1465 1461 1453 1451 1447 1442 1438 1438 1437 1434 1431 1429 1428 1426 1422 1421 1421 1423 1424 1425 1423 1423 1422 1420 1421 1421 1419 1418 1414
1470 1472 1472 1473 1475 1476 1478 1480 1481 1482 1480 1478 1474 1470 1469 1465 1462 1460 1451 1447 1444 1440 1434 1429 1427 1427 1427 1428 1426 1426 1424 1424 1427 1428 1428 1434 1421 1420 1420 1420 1419 1421 1417 1415
1466 1467 1469 1470 1472 1473 1475 1477 1479 1479 1479 1476 1473 1470 1468 1463 1459 1457 1453 1450 1448 1442 1436 1432 1426 1426 1427 1430 1430 1426 1427 1427 1431 1430 1430 1425 1420 1424 1427 1424 1421 1427 1423 1418
1462 1464 1465 1467 1469 1471 1472 1474 1476 1477 1478 1474 1473 1470 1468 1466 1463 1458 1454 1452 1447 1443 1441 1437 1434 1432 1431 1428 1429 1431 1430 1431 1429 1435 1435 1436 1428 1430 1428 1427 1419 1429 1425 1416
1458 1460 1461 1463 1466 1468 1469 1470 1472 1474 1475 1470 1471 1471 1469 1468 1467 1465 1461 1456 1450 1447 1445 1440 1440 1436 1436 1434 1430 1433 1434 1436 1437 1441 1440 1431 1433 1430 1425 1423 1431 1432 1429 1425
1453 1456 1457 1460 1462 1464 1466 1466 1469 1471 1471 1468 1467 1467 1467 1467 1467 1466 1461 1457 1456 1453 1450 1448 1446 1444 1443 1441 1439 1437 1436 1437 1442 1439 1440 1441 1437 1431 1431 1438 1437 1435 1434 1432
1449 1452 1453 1456 1458 1461 1463 1463 1465 1468 1469 1466 1464 1463 1463 1463 1465 1465 1464 1464 1463 1461 1458 1456 1455 1448 1449 1448 1438 1440 1440 1444 1445 1444 1442 1447 1444 1445 1443 1439 1439 1439 1437 1437
1444 1447 1448 1451 1454 1457 1460 1462 1464 1465 1466 1463 1460 1455 1457 1457 1458 1463 1465 1464 1463 1463 1462 1461 1458 1453 1451 1450 1448 1443 1445 1448 1446 1446 1451 1452 1450 1448 1445 1443 1443 1442 1442 1441
1439 1441 1444 1447 1451 1454 1457 1459 1461 1464 1465 1463 1455 1453 1453 1453 1454 1456 1460 1462 1464 1463 1462 1461 1458 1457 1453 1450 1449 1449 1453 1451 1452 1447 1451 1453 1453 1450 1449 1448 1448 1447 1446 1444
1434 1437 1440 1443 1446 1450 1453 1456 1456 1459 1464 1459 1454 1452 1450 1449 1451 1452 1457 1459 1462 1462 1462 1460 1457 1455 1454 1452 1451 1453 1455 1455 1453 1452 1456 1454 1457 1455 1452 1450 1450 1449 1449 1447
1429 1432 1434 1438 1442 1447 1450 1452 1451 1452 1455 1457 1455 1451 1449 1448 1449 1451 1454 1458 1461 1462 1462 1458 1455 1454 1454 1452 1450 1457 1457 1457 1455 1456 1456 1456 1457 1456 1455 1453 1452 1452 1450 1450
1424 1427 1428 1431 1435 1441 1445 1446 1445 1444 1449 1453 1453 1449 1448 1447 1449 1451 1454 1456 1458 1460 1459 1458 1456 1454 1453 1452 1447 1457 1458 1458 1457 1456 1456 1457 1458 1458 1457 1455 1454 1454 1453 1451
1421 1423 1425 1428 1433 1438 1441 1442 1442 1443 1449 1452 1451 1449 1448 1448 1449 1451 1453 1454 1457 1457 1457 1456 1454 1453 1452 1451 1456 1457 1457 1458 1458 1457 1457 1457 1458 1458 1457 1456 1455 1455 1453 1452
1417 1420 1423 1427 1431 1434 1438 1441 1443 1446 1451 1449 1449 1448 1445 1446 1447 1448 1451 1453 1455 1455 1454 1453 1453 1451 1449 1454 1455 1456 1457 1458 1458 1458 1458 1457 1457 1457 1457 1456 1455 1455 1454 1452
1415 1418 1421 1425 1426 1432 1437 1442 1445 1447 1447 1447 1445 1443 1443 1445 1445 1447 1450 1450 1451 1452 1449 1449 1448 1449 1455 1455 1456 1456 1457 1457 1457 1457 1457 1457 1457 1458 1457 1456 1455 1455 1455 1453
1411 1414 1418 1423 1428 1433 1436 1440 1442 1444 1444 1441 1439 1440 1440 1443 1443 1445 1448 1448 1448 1446 1444 1446 1444 1446 1453 1456 1456 1457 1457 1457 1457 1457 1457 1457 1458 1459 1457 1457 1456 1456 1456 1456
1410 1413 1417 1423 1426 1430 1433 1437 1439 1439 1436 1434 1435 1437 1439 1440 1441 1442 1445 1443 1445 1443 1443 1443 1442 1452 1454 1455 1456 1457 1457 1457 1457 1457 1457 1458 1457 1457 1457 1456 1455 1457 1457 1458
1409 1412 1416 1418 1422 1423 1428 1432 1430 1429 1428 1429 1431 1434 1437 1439 1440 1440 1441 1442 1440 1442 1441 1439 1449 1453 1454 1455 1456 1457 1457 1457 1457 1457 1457 1457 1457 1458 1457 1456 1456 1460 1460 1460
1405 1408 1412 1414 1418 1416 1416 1415 1416 1418 1420 1424 1428 1432 1433 1436 1438 1437 1436 1439 1441 1440 1441 1438 1449 1452 1454 1456 1457 1457 1457 1457 1457 1458 1458 1459 1458 1457 1458 1459 1461 1463 1462 1462
1402 1404 1405 1410 1409 1409 1411 1413 1415 1418 1421 1424 1427 1430 1433 1436 1437 1438 1440 1438 1434 1435 1433 1446 1450 1452 1455 1456 1457 1457 1457 1458 1458 1459 1459 1459 1461 1462 1463 1464 1464 1464 1464 1464
1400 1405 1407 1408 1410 1410 1412 1413 1416 1418 1421 1425 1427 1431 1434 1436 1437 1437 1434 1433 1430 1438 1445 1447 1450 1453 1455 1456 1457 1458 1459 1460 1461 1462 1463 1464 1464 1465 1466 1466 1467 1467 1467 1467
1401 1403 1403 1406 1406 1410 1409 1411 1415 1418 1422 1423 1426 1432 1431 1436 1439 1438 1441 1438 1443 1444 1446 1449 1452 1454 1456 1457 1459 1460 1461 1462 1464 1465 1465 1466 1467 1467 1468 1468 1468 1468 1468 1467